sat.trackr.live / text

‹ back to catalog

HULIANWANG DIGUI-09

NORAD 62331 · 2024-240J

PAYLOAD ACTIVE UNKNOWN

§ Identity

Operator
Country
PRC
Launch date
2024-12-16
Launch site
WSC
Launch vehicle
Mass (kg)
RCS (m²)

External: N2YO · Heavens-Above · Gunter

§ Orbital elements

Epoch: 2026-05-25T03:06:51.726240Z

Period
108.73 min
Inclination
86.5002°
Eccentricity
0.0001496
Mean motion
13.24407341 rev/d
Perigee alt
1,166.8 km
Apogee alt
1,169.1 km
Semi-major
7,546.1 km
B*
1.0393e-4
RAAN
351.0446°
Arg perigee
83.7892°
Mean anomaly
276.3412°
Rev number
6,958

§ Raw data

HULIANWANG DIGUI-091 62331U 24240J   26145.12976535  .00000059  00000+0  10393-3 0  99952 62331  86.5002 351.0446 0001496  83.7892 276.3412 13.24407341 69580

JSON: /api/v1/satellites/62331 · /tle

For live sub-satellite position, see the globe view (requires WebGL).

§ Visibility from observer

Set your observer location to see the next 7 days of passes ≥ 10°. The values pass through the URL so the page stays shareable.

No JS? Fill the form by hand. The geolocation button needs JavaScript.